KEAUMO HI US current weather conditions

sailwx.info

Wind from 024 at 9 knots gusting 14

Air temperature 23.3° C
Dewpoint 14.1° C

Last reported at 2014-Jul-23 20:34 UTC.
Time now 2014-Jul-23 21:47 UTC

Location: N 19°28' W 155°22'.
View on Google Maps.

See reports from other nearby stations

  
Tides and Currents Weather Stations Pressure Air Temp Water Temp Dewpoint Dewpoint Depression Visibility Wind Speed Wind Dir Waves Ship Positions
date/time (UTC)wind fromknots sea level pressurealtimeterstation pressurevisibilityair tempwater tempwave heightnotes
2014-Jul-23 20:34 024 9 gusting 14 23.3
2014-Jul-23 19:34 072 6 gusting 14 24.4
2014-Jul-23 18:34 029 8 gusting 13 21.7
2014-Jul-23 17:34 007 5 gusting 14 20.0
2014-Jul-23 16:34 015 8 gusting 14 14.4
2014-Jul-23 15:34 017 7 gusting 13 13.9
2014-Jul-23 14:34 029 8 gusting 6 14.4
2014-Jul-23 13:34 314 0 gusting 8 12.2
2014-Jul-23 12:34 15.0
2014-Jul-23 11:34 330 4 gusting 8 14.4
2014-Jul-23 10:34 339 3 gusting 4 13.3
2014-Jul-23 09:34 14.4
2014-Jul-23 08:34 165 1 gusting 9 14.4
2014-Jul-23 07:34 034 5 gusting 13 15.6
2014-Jul-23 06:34 027 6 gusting 13 15.6
2014-Jul-23 05:34 011 6 gusting 12 16.7
2014-Jul-23 04:34 012 6 gusting 13 17.8
2014-Jul-23 03:34 029 6 gusting 15 20.6
2014-Jul-23 02:34 026 6 gusting 16 20.6
2014-Jul-23 01:34 034 9 gusting 15 21.1
2014-Jul-23 00:34 047 8 gusting 12 23.3
2014-Jul-22 23:34 031 6 gusting 13 26.7
2014-Jul-22 22:34 047 6 gusting 13 26.1
2014-Jul-22 21:34 051 7 gusting 12 23.9
2014-Jul-22 20:34 046 6 gusting 12 24.4
2014-Jul-22 19:34 041 6 gusting 9 22.8
2014-Jul-22 18:34 035 4 gusting 6 23.3
2014-Jul-22 17:34 010 3 gusting 5 18.9
2014-Jul-22 16:34 313 4 gusting 5 8.9
2014-Jul-22 15:34 326 3 gusting 6 9.4
2014-Jul-22 14:34 331 3 gusting 5 10.6
2014-Jul-22 13:34 331 1 gusting 4 10.6
2014-Jul-22 12:34 324 0 gusting 3 11.7
2014-Jul-22 11:34 320 1 gusting 4 12.8
2014-Jul-22 10:34 13.9
2014-Jul-22 09:34 300 0 gusting 4 15.6
2014-Jul-22 08:34 038 0 gusting 5 16.1
2014-Jul-22 07:34 16.7
2014-Jul-22 06:34 16.7
2014-Jul-22 05:34 16.1
2014-Jul-22 04:34 156 0 gusting 3 16.7
2014-Jul-22 03:34 138 0 gusting 8 16.7
2014-Jul-22 02:34 170 3 gusting 6 20.6
2014-Jul-22 01:34 199 2 gusting 8 23.3
2014-Jul-22 00:34 116 2 gusting 6 20.6
2014-Jul-21 23:34 150 1 gusting 9 22.8
2014-Jul-21 22:34 116 3 gusting 6 24.4
2014-Jul-21 21:34 134 2 gusting 6 25.0